Time,TemperatureF,DewpointF,PressureIn,WindDirection,WindDirectionDegrees,WindSpeedMPH,WindSpeedGustMPH,Humidity,HourlyPrecipIn,Conditions,Clouds,dailyrainin,SoftwareType,DateUTC
2013-05-15 00:01:00,73.4,69.3,30.15,South,169,14.0,17.0,87,0.00,,---,0.00,VWS V14.01,2013-05-15 05:01:00,
2013-05-15 00:06:00,73.5,69.7,30.15,ESE,117,11.0,13.0,88,0.00,,---,0.00,VWS V14.01,2013-05-15 05:06:00,
2013-05-15 00:11:00,73.5,69.7,30.15,ESE,120,11.0,13.0,88,0.00,,---,0.00,VWS V14.01,2013-05-15 05:11:00,
2013-05-15 00:16:00,73.5,69.4,30.15,SSE,148,5.0,14.0,87,0.00,,---,0.00,VWS V14.01,2013-05-15 05:16:00,
2013-05-15 00:21:00,73.6,69.5,30.15,SE,133,11.0,17.0,87,0.00,,---,0.00,VWS V14.01,2013-05-15 05:21:00,
2013-05-15 00:26:00,73.6,69.5,30.15,SSE,148,10.0,17.0,87,0.00,,---,0.00,VWS V14.01,2013-05-15 05:26:00,
2013-05-15 00:31:00,73.6,69.5,30.15,SE,135,12.0,17.0,87,0.00,,---,0.00,VWS V14.01,2013-05-15 05:31:00,
2013-05-15 00:36:00,73.6,69.5,30.14,SE,132,5.0,18.0,87,0.00,,---,0.00,VWS V14.01,2013-05-15 05:36:00,
2013-05-15 00:41:00,73.6,69.5,30.14,ESE,119,7.0,18.0,87,0.00,,---,0.00,VWS V14.01,2013-05-15 05:41:00,
2013-05-15 00:46:00,73.6,69.8,30.14,South,171,5.0,18.0,88,0.00,,---,0.00,VWS V14.01,2013-05-15 05:46:00,
2013-05-15 00:51:00,73.6,69.8,30.14,SE,133,6.0,18.0,88,0.00,,---,0.00,VWS V14.01,2013-05-15 05:51:00,
2013-05-15 00:56:00,73.5,69.7,30.14,ESE,107,5.0,18.0,88,0.00,,---,0.00,VWS V14.01,2013-05-15 05:56:00,
2013-05-15 01:01:00,73.5,69.7,30.14,SE,128,8.0,18.0,88,0.00,,---,0.00,VWS V14.01,2013-05-15 06:01:00,
2013-05-15 01:06:00,73.5,69.7,30.14,SSE,149,4.0,13.0,88,0.00,,---,0.00,VWS V14.01,2013-05-15 06:06:00,
2013-05-15 01:11:00,73.5,69.7,30.13,SE,127,10.0,13.0,88,0.00,,---,0.00,VWS V14.01,2013-05-15 06:11:00,
2013-05-15 01:16:00,73.5,69.7,30.12,SSE,150,8.0,13.0,88,0.00,,---,0.00,VWS V14.01,2013-05-15 06:16:00,
2013-05-15 01:21:00,73.6,69.8,30.12,SE,142,9.0,13.0,88,0.00,,---,0.00,VWS V14.01,2013-05-15 06:21:00,
2013-05-15 01:26:00,73.5,69.7,30.12,SE,134,12.0,16.0,88,0.00,,---,0.00,VWS V14.01,2013-05-15 06:26:00,
2013-05-15 01:31:00,73.5,69.7,30.11,SSE,156,3.0,16.0,88,0.00,,---,0.00,VWS V14.01,2013-05-15 06:31:00,
2013-05-15 01:36:00,73.5,69.4,30.11,SE,146,6.0,16.0,87,0.00,,---,0.00,VWS V14.01,2013-05-15 06:36:00,
2013-05-15 01:41:00,73.5,69.4,30.11,SSE,162,6.0,16.0,87,0.00,,---,0.00,VWS V14.01,2013-05-15 06:41:00,
2013-05-15 01:46:00,73.5,69.4,30.10,South,189,8.0,16.0,87,0.00,,---,0.00,VWS V14.01,2013-05-15 06:46:00,
2013-05-15 01:51:00,73.5,69.4,30.10,SE,142,7.0,16.0,87,0.00,,---,0.00,VWS V14.01,2013-05-15 06:51:00,
2013-05-15 01:56:00,73.5,69.7,30.10,SSE,166,6.0,16.0,88,0.00,,---,0.00,VWS V14.01,2013-05-15 06:56:00,
2013-05-15 02:01:00,73.5,69.4,30.09,SE,127,12.0,16.0,87,0.00,,---,0.00,VWS V14.01,2013-05-15 07:01:00,
2013-05-15 02:06:00,73.5,69.4,30.09,ESE,111,11.0,14.0,87,0.00,,---,0.00,VWS V14.01,2013-05-15 07:06:00,
2013-05-15 02:11:00,73.5,69.4,30.09,ESE,120,12.0,15.0,87,0.00,,---,0.00,VWS V14.01,2013-05-15 07:11:00,
2013-05-15 02:16:00,73.5,69.7,30.09,SE,126,7.0,15.0,88,0.00,,---,0.00,VWS V14.01,2013-05-15 07:16:00,
2013-05-15 02:21:00,73.5,69.7,30.09,SSE,147,5.0,15.0,88,0.00,,---,0.00,VWS V14.01,2013-05-15 07:21:00,
2013-05-15 02:26:00,73.5,69.7,30.08,SE,124,2.0,15.0,88,0.00,,---,0.00,VWS V14.01,2013-05-15 07:26:00,
2013-05-15 02:31:00,73.5,69.7,30.08,ESE,120,4.0,15.0,88,0.00,,---,0.00,VWS V14.01,2013-05-15 07:31:00,
2013-05-15 02:36:00,73.4,69.6,30.08,SE,145,9.0,15.0,88,0.00,,---,0.00,VWS V14.01,2013-05-15 07:36:00,
2013-05-15 02:41:00,73.4,69.6,30.07,SE,132,11.0,16.0,88,0.00,,---,0.00,VWS V14.01,2013-05-15 07:41:00,
2013-05-15 02:46:00,73.4,69.6,30.07,ESE,108,3.0,16.0,88,0.00,,---,0.00,VWS V14.01,2013-05-15 07:46:00,
2013-05-15 02:51:00,73.4,69.6,30.07,South,170,3.0,16.0,88,0.00,,---,0.00,VWS V14.01,2013-05-15 07:51:00,
2013-05-15 02:56:00,73.5,69.7,30.07,ESE,117,6.0,16.0,88,0.00,,---,0.00,VWS V14.01,2013-05-15 07:56:00,
2013-05-15 03:01:00,73.5,69.7,30.06,ESE,117,6.0,16.0,88,0.00,,---,0.00,VWS V14.01,2013-05-15 08:01:00,
2013-05-15 03:06:00,73.5,69.7,30.06,South,176,3.0,15.0,88,0.00,,---,0.00,VWS V14.01,2013-05-15 08:06:00,
2013-05-15 03:11:00,73.5,69.7,30.07,SE,129,6.0,17.0,88,0.00,,---,0.00,VWS V14.01,2013-05-15 08:11:00,
2013-05-15 03:16:00,73.5,69.7,30.07,SSE,155,10.0,17.0,88,0.00,,---,0.00,VWS V14.01,2013-05-15 08:16:00,
2013-05-15 03:21:00,73.5,69.7,30.08,ESE,122,5.0,17.0,88,0.00,,---,0.00,VWS V14.01,2013-05-15 08:21:00,
2013-05-15 03:26:00,73.5,69.7,30.07,East,90,3.0,17.0,88,0.00,,---,0.00,VWS V14.01,2013-05-15 08:26:00,
2013-05-15 03:31:00,73.4,69.6,30.08,SSE,150,5.0,17.0,88,0.00,,---,0.00,VWS V14.01,2013-05-15 08:31:00,
2013-05-15 03:36:00,73.4,69.6,30.08,East,90,7.0,17.0,88,0.00,,---,0.00,VWS V14.01,2013-05-15 08:36:00,
2013-05-15 03:41:00,73.4,69.6,30.08,SE,139,9.0,17.0,88,0.00,,---,0.00,VWS V14.01,2013-05-15 08:41:00,
2013-05-15 03:46:00,73.5,69.7,30.08,SE,139,4.0,17.0,88,0.00,,---,0.00,VWS V14.01,2013-05-15 08:46:00,
2013-05-15 03:51:00,73.5,69.7,30.08,SSE,159,9.0,17.0,88,0.00,,---,0.00,VWS V14.01,2013-05-15 08:51:00,
2013-05-15 03:56:00,73.5,69.7,30.08,ESE,122,5.0,17.0,88,0.00,,---,0.00,VWS V14.01,2013-05-15 08:56:00,
2013-05-15 04:01:00,73.5,69.7,30.09,ESE,112,5.0,17.0,88,0.00,,---,0.00,VWS V14.01,2013-05-15 09:01:00,
2013-05-15 04:06:00,73.5,69.7,30.09,SSE,148,5.0,12.0,88,0.00,,---,0.00,VWS V14.01,2013-05-15 09:06:00,
2013-05-15 04:11:00,73.5,70.1,30.08,SSE,160,6.0,12.0,89,0.00,,---,0.00,VWS V14.01,2013-05-15 09:11:00,
2013-05-15 04:16:00,73.4,70.0,30.08,ESE,105,2.0,12.0,89,0.00,,---,0.00,VWS V14.01,2013-05-15 09:16:00,
2013-05-15 04:21:00,73.4,70.0,30.08,ESE,115,7.0,12.0,89,0.00,,---,0.00,VWS V14.01,2013-05-15 09:21:00,
2013-05-15 04:26:00,73.1,70.0,30.09,SE,129,4.0,12.0,90,0.00,,---,0.00,VWS V14.01,2013-05-15 09:26:00,
2013-05-15 04:31:00,73.0,70.2,30.10,SE,133,2.0,12.0,91,0.01,,---,0.01,VWS V14.01,2013-05-15 09:31:00,
2013-05-15 04:36:00,72.9,70.1,30.10,SSW,212,5.0,12.0,91,0.01,,---,0.01,VWS V14.01,2013-05-15 09:36:00,
2013-05-15 04:41:00,72.8,70.0,30.09,SE,133,4.0,12.0,91,0.01,,---,0.01,VWS V14.01,2013-05-15 09:41:00,
2013-05-15 04:46:00,72.8,70.3,30.09,East,84,6.0,12.0,92,0.01,,---,0.01,VWS V14.01,2013-05-15 09:46:00,
2013-05-15 04:51:00,72.8,70.3,30.09,SSE,156,6.0,12.0,92,0.01,,---,0.01,VWS V14.01,2013-05-15 09:51:00,
2013-05-15 04:56:00,72.7,70.2,30.10,SE,146,4.0,12.0,92,0.01,,---,0.01,VWS V14.01,2013-05-15 09:56:00,
2013-05-15 05:01:00,72.8,70.3,30.10,SE,124,3.0,12.0,92,0.01,,---,0.01,VWS V14.01,2013-05-15 10:01:00,
2013-05-15 05:06:00,72.7,70.2,30.10,SE,130,4.0,6.0,92,0.01,,---,0.01,VWS V14.01,2013-05-15 10:06:00,
2013-05-15 05:11:00,72.7,70.6,30.10,South,181,2.0,7.0,93,0.01,,---,0.01,VWS V14.01,2013-05-15 10:11:00,
2013-05-15 05:16:00,72.7,70.6,30.10,South,169,6.0,7.0,93,0.01,,---,0.01,VWS V14.01,2013-05-15 10:16:00,
2013-05-15 05:21:00,72.8,70.7,30.10,SSW,200,3.0,7.0,93,0.01,,---,0.01,VWS V14.01,2013-05-15 10:21:00,
2013-05-15 05:26:00,72.8,70.7,30.10,SSE,155,5.0,8.0,93,0.01,,---,0.01,VWS V14.01,2013-05-15 10:26:00,
2013-05-15 05:31:00,72.8,70.7,30.10,SSE,162,2.0,8.0,93,0.01,,---,0.01,VWS V14.01,2013-05-15 10:31:00,
2013-05-15 05:36:00,72.9,70.4,30.10,SSE,150,5.0,8.0,92,0.01,,---,0.01,VWS V14.01,2013-05-15 10:36:00,
2013-05-15 05:41:00,72.9,70.4,30.09,SSE,153,4.0,11.0,92,0.01,,---,0.01,VWS V14.01,2013-05-15 10:41:00,
2013-05-15 05:46:00,72.8,70.7,30.09,SSE,148,3.0,11.0,93,0.01,,---,0.01,VWS V14.01,2013-05-15 10:46:00,
2013-05-15 05:51:00,72.8,70.7,30.09,SE,145,1.0,11.0,93,0.01,,---,0.01,VWS V14.01,2013-05-15 10:51:00,
2013-05-15 05:56:00,72.8,70.7,30.09,SE,143,7.0,11.0,93,0.01,,---,0.01,VWS V14.01,2013-05-15 10:56:00,
2013-05-15 06:01:00,72.7,70.6,30.09,SE,133,10.0,11.0,93,0.01,,---,0.01,VWS V14.01,2013-05-15 11:01:00,
2013-05-15 06:06:00,72.7,70.6,30.09,SE,141,3.0,8.0,93,0.00,,---,0.01,VWS V14.01,2013-05-15 11:06:00,
2013-05-15 06:11:00,72.7,70.6,30.09,South,176,3.0,10.0,93,0.00,,---,0.01,VWS V14.01,2013-05-15 11:11:00,
2013-05-15 06:16:00,72.7,70.9,30.10,SSE,160,7.0,10.0,94,0.03,,---,0.04,VWS V14.01,2013-05-15 11:16:00,
2013-05-15 06:21:00,72.7,70.9,30.09,SSE,153,3.0,10.0,94,0.09,,---,0.10,VWS V14.01,2013-05-15 11:21:00,
2013-05-15 06:26:00,72.6,70.8,30.09,SSE,155,3.0,10.0,94,0.17,,---,0.18,VWS V14.01,2013-05-15 11:26:00,
2013-05-15 06:31:00,72.5,70.7,30.10,SSE,149,3.0,10.0,94,0.17,,---,0.18,VWS V14.01,2013-05-15 11:31:00,
2013-05-15 06:36:00,72.6,71.1,30.09,East,98,3.0,10.0,95,0.17,,---,0.18,VWS V14.01,2013-05-15 11:36:00,
2013-05-15 06:41:00,72.6,71.1,30.10,SSE,149,5.0,10.0,95,0.18,,---,0.19,VWS V14.01,2013-05-15 11:41:00,
2013-05-15 06:47:00,72.7,71.2,30.09,SSE,148,6.0,10.0,95,0.18,,---,0.19,VWS V14.01,2013-05-15 11:47:00,
2013-05-15 06:52:00,72.7,70.9,30.10,SE,125,2.0,10.0,94,0.18,,---,0.19,VWS V14.01,2013-05-15 11:52:00,
2013-05-15 06:57:00,72.7,70.9,30.10,ESE,104,9.0,12.0,94,0.18,,---,0.19,VWS V14.01,2013-05-15 11:57:00,
2013-05-15 07:02:00,72.6,70.8,30.10,SSE,163,8.0,12.0,94,0.18,,---,0.19,VWS V14.01,2013-05-15 12:02:00,
2013-05-15 07:07:00,72.6,70.8,30.10,ESE,117,6.0,14.0,94,0.18,,---,0.19,VWS V14.01,2013-05-15 12:07:00,
2013-05-15 07:12:00,72.6,71.1,30.10,SSE,166,7.0,14.0,95,0.18,,---,0.19,VWS V14.01,2013-05-15 12:12:00,
2013-05-15 07:17:00,72.6,71.1,30.10,ESE,105,6.0,14.0,95,0.18,,---,0.19,VWS V14.01,2013-05-15 12:17:00,
2013-05-15 07:23:00,72.5,71.0,30.09,South,169,9.0,15.0,95,0.19,,---,0.20,VWS V14.01,2013-05-15 12:23:00,
2013-05-15 07:28:00,72.4,70.9,30.09,ESE,121,7.0,15.0,95,0.19,,---,0.20,VWS V14.01,2013-05-15 12:28:00,
2013-05-15 07:33:00,72.4,70.9,30.09,SE,143,8.0,15.0,95,0.20,,---,0.21,VWS V14.01,2013-05-15 12:33:00,
2013-05-15 07:38:00,72.4,70.9,30.10,SE,130,7.0,15.0,95,0.21,,---,0.22,VWS V14.01,2013-05-15 12:38:00,
2013-05-15 07:43:00,72.4,70.9,30.10,SE,133,3.0,15.0,95,0.21,,---,0.22,VWS V14.01,2013-05-15 12:43:00,
2013-05-15 07:48:00,72.4,70.9,30.09,ESE,117,7.0,15.0,95,0.21,,---,0.22,VWS V14.01,2013-05-15 12:48:00,
2013-05-15 07:53:00,72.4,71.2,30.09,SSE,165,6.0,15.0,96,0.23,,---,0.24,VWS V14.01,2013-05-15 12:53:00,
2013-05-15 07:58:00,72.4,71.2,30.09,SSE,159,12.0,15.0,96,0.24,,---,0.25,VWS V14.01,2013-05-15 12:58:00,
2013-05-15 08:03:00,72.4,71.2,30.09,SE,125,5.0,13.0,96,0.06,,---,0.25,VWS V14.01,2013-05-15 13:03:00,
2013-05-15 08:08:00,72.4,70.9,30.09,SE,143,6.0,16.0,95,0.07,,---,0.26,VWS V14.01,2013-05-15 13:08:00,
2013-05-15 08:13:00,72.4,71.2,30.09,SSE,148,4.0,16.0,96,0.08,,---,0.27,VWS V14.01,2013-05-15 13:13:00,
2013-05-15 08:18:00,72.4,71.2,30.09,SE,129,11.0,16.0,96,0.10,,---,0.29,VWS V14.01,2013-05-15 13:18:00,
2013-05-15 08:23:00,72.4,71.2,30.09,ESE,121,10.0,16.0,96,0.10,,---,0.29,VWS V14.01,2013-05-15 13:23:00,
2013-05-15 08:29:00,72.4,71.2,30.09,ESE,120,11.0,16.0,96,0.11,,---,0.30,VWS V14.01,2013-05-15 13:29:00,
2013-05-15 08:34:00,72.5,71.3,30.09,ESE,121,6.0,16.0,96,0.12,,---,0.31,VWS V14.01,2013-05-15 13:34:00,
2013-05-15 08:39:00,72.5,71.3,30.09,ESE,118,11.0,18.0,96,0.12,,---,0.31,VWS V14.01,2013-05-15 13:39:00,
2013-05-15 08:44:00,72.6,71.4,30.09,ESE,112,11.0,18.0,96,0.13,,---,0.32,VWS V14.01,2013-05-15 13:44:00,
2013-05-15 08:49:00,72.6,71.4,30.09,ESE,112,13.0,18.0,96,0.14,,---,0.33,VWS V14.01,2013-05-15 13:49:00,
2013-05-15 08:54:00,72.5,71.0,30.08,ESE,105,14.0,20.0,95,0.16,,---,0.35,VWS V14.01,2013-05-15 13:54:00,
2013-05-15 08:59:00,72.5,71.0,30.08,SE,129,18.0,21.0,95,0.17,,---,0.36,VWS V14.01,2013-05-15 13:59:00,
2013-05-15 09:04:00,72.6,71.1,30.07,ESE,118,17.0,19.0,95,0.12,,---,0.37,VWS V14.01,2013-05-15 14:04:00,
2013-05-15 09:09:00,72.6,71.4,30.08,ESE,122,13.0,20.0,96,0.12,,---,0.37,VWS V14.01,2013-05-15 14:09:00,
2013-05-15 09:14:00,72.6,71.1,30.09,East,101,6.0,20.0,95,0.13,,---,0.38,VWS V14.01,2013-05-15 14:14:00,
2013-05-15 09:19:00,72.7,71.5,30.09,ESE,121,11.0,20.0,96,0.13,,---,0.38,VWS V14.01,2013-05-15 14:19:00,
2013-05-15 09:24:00,72.7,71.2,30.09,ESE,103,19.0,20.0,95,0.14,,---,0.39,VWS V14.01,2013-05-15 14:24:00,
2013-05-15 09:30:00,72.7,71.2,30.09,East,91,9.0,20.0,95,0.14,,---,0.39,VWS V14.01,2013-05-15 14:30:00,
2013-05-15 09:35:00,72.8,71.3,30.09,SSE,152,5.0,20.0,95,0.14,,---,0.39,VWS V14.01,2013-05-15 14:35:00,
2013-05-15 09:40:00,72.8,71.3,30.09,SE,133,7.0,20.0,95,0.15,,---,0.40,VWS V14.01,2013-05-15 14:40:00,
2013-05-15 09:45:00,72.8,71.3,30.09,SE,133,7.0,20.0,95,0.15,,---,0.40,VWS V14.01,2013-05-15 14:45:00,
2013-05-15 09:50:00,72.9,71.4,30.08,ESE,122,8.0,20.0,95,0.15,,---,0.40,VWS V14.01,2013-05-15 14:50:00,
2013-05-15 09:55:00,73.1,71.6,30.08,ESE,121,10.0,20.0,95,0.15,,---,0.40,VWS V14.01,2013-05-15 14:55:00,
2013-05-15 10:00:00,73.4,71.6,30.07,ESE,117,13.0,20.0,94,0.15,,---,0.40,VWS V14.01,2013-05-15 15:00:00,
2013-05-15 10:05:00,73.6,71.8,30.07,SSE,159,7.0,18.0,94,0.04,,---,0.40,VWS V14.01,2013-05-15 15:05:00,
2013-05-15 10:11:00,73.5,71.4,30.07,East,99,15.0,21.0,93,0.04,,---,0.40,VWS V14.01,2013-05-15 15:11:00,
2013-05-15 10:16:00,73.7,71.9,30.08,SE,133,8.0,21.0,94,0.04,,---,0.40,VWS V14.01,2013-05-15 15:16:00,
2013-05-15 10:21:00,73.8,71.7,30.08,SE,135,10.0,22.0,93,0.04,,---,0.40,VWS V14.01,2013-05-15 15:21:00,
2013-05-15 10:26:00,74.3,72.2,30.08,ESE,109,12.0,22.0,93,0.04,,---,0.40,VWS V14.01,2013-05-15 15:26:00,
2013-05-15 10:32:00,74.7,72.2,30.08,ESE,122,11.0,22.0,92,0.04,,---,0.40,VWS V14.01,2013-05-15 15:32:00,
2013-05-15 10:37:00,74.8,72.0,30.08,SSE,159,14.0,22.0,91,0.04,,---,0.40,VWS V14.01,2013-05-15 15:37:00,
2013-05-15 10:42:00,74.7,71.9,30.08,East,84,12.0,22.0,91,0.04,,---,0.40,VWS V14.01,2013-05-15 15:42:00,
2013-05-15 10:47:00,75.0,72.2,30.08,ESE,122,11.0,22.0,91,0.04,,---,0.40,VWS V14.01,2013-05-15 15:47:00,
2013-05-15 10:52:00,75.4,72.6,30.08,SSE,152,7.0,22.0,91,0.04,,---,0.40,VWS V14.01,2013-05-15 15:52:00,
2013-05-15 10:57:00,75.7,72.2,30.08,ESE,122,9.0,22.0,89,0.04,,---,0.40,VWS V14.01,2013-05-15 15:57:00,
2013-05-15 11:02:00,75.9,72.8,30.08,ESE,121,12.0,13.0,90,0.00,,---,0.40,VWS V14.01,2013-05-15 16:02:00,
2013-05-15 11:07:00,75.8,72.3,30.09,ESE,112,6.0,17.0,89,0.00,,---,0.40,VWS V14.01,2013-05-15 16:07:00,
2013-05-15 11:12:00,76.0,72.9,30.08,ESE,120,5.0,17.0,90,0.00,,---,0.40,VWS V14.01,2013-05-15 16:12:00,
2013-05-15 11:18:00,76.3,72.5,30.09,East,101,10.0,17.0,88,0.00,,---,0.40,VWS V14.01,2013-05-15 16:18:00,
2013-05-15 11:23:00,76.5,72.3,30.09,SSE,153,9.0,17.0,87,0.00,,---,0.40,VWS V14.01,2013-05-15 16:23:00,
2013-05-15 11:28:00,76.1,72.3,30.08,ESE,117,11.0,17.0,88,0.00,,---,0.40,VWS V14.01,2013-05-15 16:28:00,
2013-05-15 11:33:00,76.0,72.5,30.08,South,170,9.0,17.0,89,0.00,,---,0.40,VWS V14.01,2013-05-15 16:33:00,
2013-05-15 11:38:00,76.3,72.5,30.09,South,182,11.0,18.0,88,0.00,,---,0.40,VWS V14.01,2013-05-15 16:38:00,
2013-05-15 11:43:00,76.4,72.6,30.08,SE,125,7.0,18.0,88,0.00,,---,0.40,VWS V14.01,2013-05-15 16:43:00,
2013-05-15 11:48:00,76.6,72.4,30.08,ESE,117,9.0,18.0,87,0.00,,---,0.40,VWS V14.01,2013-05-15 16:48:00,
2013-05-15 11:53:00,76.6,72.4,30.08,ESE,108,9.0,18.0,87,0.00,,---,0.40,VWS V14.01,2013-05-15 16:53:00,
2013-05-15 11:58:00,76.8,72.6,30.08,ESE,107,3.0,18.0,87,0.00,,---,0.40,VWS V14.01,2013-05-15 16:58:00,
2013-05-15 12:03:00,76.6,72.4,30.08,SE,133,5.0,15.0,87,0.00,,---,0.40,VWS V14.01,2013-05-15 17:03:00,
2013-05-15 12:09:00,76.2,72.4,30.07,SE,136,5.0,20.0,88,0.00,,---,0.40,VWS V14.01,2013-05-15 17:09:00,
2013-05-15 12:14:00,76.5,72.7,30.07,ESE,107,9.0,20.0,88,0.00,,---,0.40,VWS V14.01,2013-05-15 17:14:00,
2013-05-15 12:19:00,76.9,72.7,30.08,South,187,11.0,20.0,87,0.00,,---,0.40,VWS V14.01,2013-05-15 17:19:00,
2013-05-15 12:24:00,76.9,72.7,30.08,ESE,118,9.0,20.0,87,0.00,,---,0.40,VWS V14.01,2013-05-15 17:24:00,
2013-05-15 12:29:00,77.0,72.5,30.08,SSW,193,5.0,20.0,86,0.00,,---,0.40,VWS V14.01,2013-05-15 17:29:00,
2013-05-15 12:34:00,77.3,72.8,30.08,SE,132,11.0,20.0,86,0.00,,---,0.40,VWS V14.01,2013-05-15 17:34:00,
2013-05-15 12:39:00,77.1,72.2,30.08,SSE,148,9.0,20.0,85,0.00,,---,0.40,VWS V14.01,2013-05-15 17:39:00,
2013-05-15 12:44:00,76.7,72.5,30.08,SSE,150,11.0,20.0,87,0.00,,---,0.40,VWS V14.01,2013-05-15 17:44:00,
2013-05-15 12:49:00,76.2,72.1,30.08,ESE,121,10.0,20.0,87,0.00,,---,0.40,VWS V14.01,2013-05-15 17:49:00,
2013-05-15 12:54:00,76.1,72.3,30.08,East,98,6.0,20.0,88,0.00,,---,0.40,VWS V14.01,2013-05-15 17:54:00,
2013-05-15 12:59:00,75.8,72.0,30.08,ESE,119,15.0,20.0,88,0.00,,---,0.40,VWS V14.01,2013-05-15 17:59:00,
2013-05-15 13:04:00,75.5,72.0,30.08,SW,228,4.0,11.0,89,0.00,,---,0.40,VWS V14.01,2013-05-15 18:04:00,
2013-05-15 13:09:00,75.5,72.0,30.08,SE,146,6.0,14.0,89,0.00,,---,0.40,VWS V14.01,2013-05-15 18:09:00,
2013-05-15 13:15:00,75.7,72.2,30.08,SSE,165,10.0,14.0,89,0.00,,---,0.40,VWS V14.01,2013-05-15 18:15:00,
2013-05-15 13:20:00,75.7,72.2,30.08,SE,132,12.0,14.0,89,0.00,,---,0.40,VWS V14.01,2013-05-15 18:20:00,
2013-05-15 13:25:00,75.8,72.3,30.07,SE,129,8.0,14.0,89,0.00,,---,0.40,VWS V14.01,2013-05-15 18:25:00,
2013-05-15 13:30:00,75.7,71.9,30.07,SE,138,4.0,14.0,88,0.00,,---,0.40,VWS V14.01,2013-05-15 18:30:00,
2013-05-15 13:35:00,75.7,72.2,30.07,SSW,197,6.0,17.0,89,0.00,,---,0.40,VWS V14.01,2013-05-15 18:35:00,
2013-05-15 13:40:00,75.6,71.8,30.07,SSE,155,9.0,17.0,88,0.00,,---,0.40,VWS V14.01,2013-05-15 18:40:00,
2013-05-15 13:45:00,75.4,71.6,30.06,SSE,148,10.0,17.0,88,0.00,,---,0.40,VWS V14.01,2013-05-15 18:45:00,
2013-05-15 13:50:00,75.4,71.9,30.07,ESE,116,9.0,17.0,89,0.00,,---,0.40,VWS V14.01,2013-05-15 18:50:00,
2013-05-15 13:56:00,75.5,72.0,30.07,SE,139,5.0,18.0,89,0.00,,---,0.40,VWS V14.01,2013-05-15 18:56:00,
2013-05-15 14:01:00,75.5,72.4,30.06,SE,142,4.0,18.0,90,0.00,,---,0.40,VWS V14.01,2013-05-15 19:01:00,
2013-05-15 14:06:00,75.5,72.0,30.06,ESE,106,12.0,14.0,89,0.00,,---,0.40,VWS V14.01,2013-05-15 19:06:00,
2013-05-15 14:11:00,75.5,72.4,30.06,SE,127,10.0,15.0,90,0.00,,---,0.40,VWS V14.01,2013-05-15 19:11:00,
2013-05-15 14:17:00,75.3,71.8,30.06,SSE,150,8.0,15.0,89,0.00,,---,0.40,VWS V14.01,2013-05-15 19:17:00,
2013-05-15 14:22:00,75.2,72.1,30.05,East,101,4.0,15.0,90,0.00,,---,0.40,VWS V14.01,2013-05-15 19:22:00,
2013-05-15 14:27:00,75.2,72.1,30.05,South,188,11.0,15.0,90,0.00,,---,0.40,VWS V14.01,2013-05-15 19:27:00,
2013-05-15 14:32:00,75.4,72.6,30.05,ESE,117,7.0,15.0,91,0.00,,---,0.40,VWS V14.01,2013-05-15 19:32:00,
2013-05-15 14:37:00,75.5,72.4,30.04,South,179,11.0,15.0,90,0.00,,---,0.40,VWS V14.01,2013-05-15 19:37:00,
2013-05-15 14:42:00,75.5,72.4,30.04,SE,141,11.0,15.0,90,0.00,,---,0.40,VWS V14.01,2013-05-15 19:42:00,
2013-05-15 14:47:00,75.6,72.5,30.04,SSE,150,6.0,15.0,90,0.00,,---,0.40,VWS V14.01,2013-05-15 19:47:00,
2013-05-15 14:53:00,75.3,72.2,30.04,SE,138,16.0,16.0,90,0.00,,---,0.40,VWS V14.01,2013-05-15 19:53:00,
2013-05-15 14:58:00,75.1,72.0,30.04,SSE,167,5.0,16.0,90,0.00,,---,0.40,VWS V14.01,2013-05-15 19:58:00,
2013-05-15 15:03:00,75.1,72.3,30.03,SSE,149,2.0,8.0,91,0.00,,---,0.40,VWS V14.01,2013-05-15 20:03:00,
2013-05-15 15:08:00,75.1,72.3,30.03,SSW,195,7.0,14.0,91,0.00,,---,0.40,VWS V14.01,2013-05-15 20:08:00,
2013-05-15 15:13:00,75.2,72.4,30.03,SSW,203,8.0,15.0,91,0.00,,---,0.40,VWS V14.01,2013-05-15 20:13:00,
2013-05-15 15:18:00,75.5,72.4,30.03,SSE,160,10.0,15.0,90,0.00,,---,0.40,VWS V14.01,2013-05-15 20:18:00,
2013-05-15 15:24:00,75.8,72.7,30.02,SE,139,15.0,15.0,90,0.00,,---,0.40,VWS V14.01,2013-05-15 20:24:00,
2013-05-15 15:29:00,75.8,72.3,30.02,SE,139,16.0,17.0,89,0.00,,---,0.40,VWS V14.01,2013-05-15 20:29:00,
2013-05-15 15:34:00,76.0,72.9,30.01,ESE,120,10.0,17.0,90,0.00,,---,0.40,VWS V14.01,2013-05-15 20:34:00,
2013-05-15 15:39:00,76.0,72.5,30.01,SE,138,13.0,18.0,89,0.00,,---,0.40,VWS V14.01,2013-05-15 20:39:00,
2013-05-15 15:44:00,76.2,73.1,30.00,SE,139,12.0,18.0,90,0.00,,---,0.40,VWS V14.01,2013-05-15 20:44:00,
2013-05-15 15:49:00,76.1,72.6,30.00,SSE,154,9.0,18.0,89,0.00,,---,0.40,VWS V14.01,2013-05-15 20:49:00,
2013-05-15 15:54:00,76.1,72.6,29.99,SE,131,12.0,18.0,89,0.00,,---,0.40,VWS V14.01,2013-05-15 20:54:00,
2013-05-15 15:59:00,76.2,72.7,29.99,SSE,148,11.0,20.0,89,0.00,,---,0.40,VWS V14.01,2013-05-15 20:59:00,
2013-05-15 16:04:00,76.3,72.8,29.98,SE,139,7.0,19.0,89,0.00,,---,0.40,VWS V14.01,2013-05-15 21:04:00,
2013-05-15 16:09:00,76.6,73.1,29.97,SE,135,13.0,19.0,89,0.00,,---,0.40,VWS V14.01,2013-05-15 21:09:00,
2013-05-15 16:14:00,76.7,72.9,29.97,SSE,162,20.0,22.0,88,0.00,,---,0.40,VWS V14.01,2013-05-15 21:14:00,
2013-05-15 16:19:00,76.7,72.9,29.96,ESE,111,12.0,22.0,88,0.00,,---,0.40,VWS V14.01,2013-05-15 21:19:00,
2013-05-15 16:24:00,76.8,72.6,29.96,SE,133,16.0,23.0,87,0.00,,---,0.40,VWS V14.01,2013-05-15 21:24:00,
2013-05-15 16:30:00,76.7,72.9,29.96,South,179,16.0,23.0,88,0.00,,---,0.40,VWS V14.01,2013-05-15 21:30:00,
2013-05-15 16:35:00,76.6,72.4,29.96,SE,131,9.0,23.0,87,0.00,,---,0.40,VWS V14.01,2013-05-15 21:35:00,
2013-05-15 16:40:00,76.6,72.8,29.96,ESE,122,11.0,23.0,88,0.00,,---,0.40,VWS V14.01,2013-05-15 21:40:00,
2013-05-15 16:45:00,76.8,73.0,29.96,SE,130,10.0,23.0,88,0.00,,---,0.40,VWS V14.01,2013-05-15 21:45:00,
2013-05-15 16:51:00,76.3,72.5,29.95,SE,132,16.0,23.0,88,0.00,,---,0.40,VWS V14.01,2013-05-15 21:51:00,
2013-05-15 16:56:00,76.1,72.3,29.96,SSW,193,12.0,23.0,88,0.00,,---,0.40,VWS V14.01,2013-05-15 21:56:00,
2013-05-15 17:01:00,76.2,72.4,29.96,ESE,102,13.0,23.0,88,0.00,,---,0.40,VWS V14.01,2013-05-15 22:01:00,
2013-05-15 17:06:00,76.2,72.1,29.96,SSE,152,17.0,19.0,87,0.00,,---,0.40,VWS V14.01,2013-05-15 22:06:00,
2013-05-15 17:11:00,76.1,71.9,29.96,SSE,150,8.0,19.0,87,0.00,,---,0.40,VWS V14.01,2013-05-15 22:11:00,
2013-05-15 17:16:00,76.1,72.3,29.96,SE,129,10.0,20.0,88,0.00,,---,0.40,VWS V14.01,2013-05-15 22:16:00,
2013-05-15 17:21:00,75.9,72.1,29.96,SE,135,14.0,20.0,88,0.00,,---,0.40,VWS V14.01,2013-05-15 22:21:00,
2013-05-15 17:26:00,75.8,72.0,29.96,SSE,153,7.0,20.0,88,0.00,,---,0.40,VWS V14.01,2013-05-15 22:26:00,
2013-05-15 17:32:00,75.7,72.2,29.97,ESE,116,10.0,20.0,89,0.00,,---,0.40,VWS V14.01,2013-05-15 22:32:00,
2013-05-15 17:37:00,75.6,72.1,29.96,SSE,148,14.0,20.0,89,0.00,,---,0.40,VWS V14.01,2013-05-15 22:37:00,
2013-05-15 17:41:00,75.5,71.7,29.96,South,179,12.0,22.0,88,0.00,,---,0.40,VWS V14.01,2013-05-15 22:41:00,
2013-05-15 17:47:00,75.4,71.9,29.96,South,184,8.0,22.0,89,0.00,,---,0.40,VWS V14.01,2013-05-15 22:47:00,
2013-05-15 17:52:00,75.5,72.0,29.96,SE,139,11.0,22.0,89,0.00,,---,0.40,VWS V14.01,2013-05-15 22:52:00,
2013-05-15 17:57:00,75.5,72.0,29.96,SE,141,11.0,22.0,89,0.00,,---,0.40,VWS V14.01,2013-05-15 22:57:00,
2013-05-15 18:02:00,75.6,72.1,29.96,SSE,158,7.0,22.0,89,0.00,,---,0.40,VWS V14.01,2013-05-15 23:02:00,
2013-05-15 18:07:00,75.8,72.0,29.96,SSE,162,11.0,15.0,88,0.00,,---,0.40,VWS V14.01,2013-05-15 23:07:00,
2013-05-15 18:12:00,75.8,72.0,29.96,SE,145,12.0,17.0,88,0.00,,---,0.40,VWS V14.01,2013-05-15 23:12:00,
2013-05-15 18:17:00,75.5,72.0,29.96,SE,133,10.0,17.0,89,0.00,,---,0.40,VWS V14.01,2013-05-15 23:17:00,
2013-05-15 18:23:00,75.4,71.6,29.96,SE,126,7.0,19.0,88,0.00,,---,0.40,VWS V14.01,2013-05-15 23:23:00,
2013-05-15 18:28:00,75.3,71.5,29.96,East,94,4.0,19.0,88,0.00,,---,0.40,VWS V14.01,2013-05-15 23:28:00,
2013-05-15 18:33:00,75.4,71.9,29.96,SE,128,6.0,19.0,89,0.00,,---,0.40,VWS V14.01,2013-05-15 23:33:00,
2013-05-15 18:38:00,75.4,71.9,29.96,SSE,159,16.0,19.0,89,0.00,,---,0.40,VWS V14.01,2013-05-15 23:38:00,
2013-05-15 18:43:00,75.4,71.9,29.95,SE,133,7.0,19.0,89,0.00,,---,0.40,VWS V14.01,2013-05-15 23:43:00,
2013-05-15 18:48:00,75.4,71.6,29.95,SSE,158,6.0,19.0,88,0.00,,---,0.40,VWS V14.01,2013-05-15 23:48:00,
2013-05-15 18:53:00,75.4,71.6,29.95,SE,142,8.0,19.0,88,0.00,,---,0.40,VWS V14.01,2013-05-15 23:53:00,
2013-05-15 18:58:00,75.1,71.3,29.95,SE,128,6.0,19.0,88,0.00,,---,0.40,VWS V14.01,2013-05-15 23:58:00,
2013-05-15 19:03:00,75.1,71.3,29.95,SSE,159,12.0,16.0,88,0.00,,---,0.40,VWS V14.01,2013-05-16 00:03:00,
2013-05-15 19:08:00,75.1,71.6,29.95,East,94,8.0,16.0,89,0.00,,---,0.40,VWS V14.01,2013-05-16 00:08:00,
2013-05-15 19:13:00,75.0,71.2,29.95,SE,138,11.0,16.0,88,0.00,,---,0.40,VWS V14.01,2013-05-16 00:13:00,
2013-05-15 19:18:00,74.9,71.4,29.95,SW,236,8.0,16.0,89,0.00,,---,0.40,VWS V14.01,2013-05-16 00:18:00,
2013-05-15 19:23:00,74.8,71.3,29.94,SE,141,7.0,16.0,89,0.00,,---,0.40,VWS V14.01,2013-05-16 00:23:00,
2013-05-15 19:28:00,74.8,71.0,29.94,SE,139,6.0,16.0,88,0.00,,---,0.40,VWS V14.01,2013-05-16 00:28:00,
2013-05-15 19:33:00,74.6,71.2,29.94,SE,129,13.0,16.0,89,0.00,,---,0.40,VWS V14.01,2013-05-16 00:33:00,
2013-05-15 19:39:00,74.6,71.2,29.94,SSE,150,4.0,16.0,89,0.00,,---,0.40,VWS V14.01,2013-05-16 00:39:00,
2013-05-15 19:44:00,74.5,71.1,29.94,East,85,8.0,16.0,89,0.00,,---,0.40,VWS V14.01,2013-05-16 00:44:00,
2013-05-15 19:49:00,74.4,70.9,29.94,SE,146,2.0,16.0,89,0.00,,---,0.40,VWS V14.01,2013-05-16 00:49:00,
2013-05-15 19:54:00,74.3,70.8,29.94,ESE,122,5.0,16.0,89,0.00,,---,0.40,VWS V14.01,2013-05-16 00:54:00,
2013-05-15 19:59:00,74.2,70.8,29.94,SSE,147,15.0,16.0,89,0.00,,---,0.40,VWS V14.01,2013-05-16 00:59:00,
2013-05-15 20:04:00,74.1,70.7,29.93,SSE,153,7.0,16.0,89,0.00,,---,0.40,VWS V14.01,2013-05-16 01:04:00,
2013-05-15 20:09:00,74.1,70.7,29.93,SSE,148,7.0,16.0,89,0.00,,---,0.40,VWS V14.01,2013-05-16 01:09:00,
2013-05-15 20:14:00,74.0,70.9,29.94,SE,128,6.0,16.0,90,0.00,,---,0.40,VWS V14.01,2013-05-16 01:14:00,
2013-05-15 20:19:00,73.9,70.5,29.94,SE,135,12.0,16.0,89,0.00,,---,0.40,VWS V14.01,2013-05-16 01:19:00,
2013-05-15 20:25:00,73.9,70.8,29.95,SE,142,11.0,16.0,90,0.00,,---,0.40,VWS V14.01,2013-05-16 01:25:00,
2013-05-15 20:30:00,73.9,70.5,29.95,SE,143,14.0,16.0,89,0.00,,---,0.40,VWS V14.01,2013-05-16 01:30:00,
2013-05-15 20:35:00,73.9,70.8,29.95,SSE,162,4.0,16.0,90,0.00,,---,0.40,VWS V14.01,2013-05-16 01:35:00,
2013-05-15 20:40:00,73.9,70.8,29.95,East,95,9.0,16.0,90,0.00,,---,0.40,VWS V14.01,2013-05-16 01:40:00,
2013-05-15 20:45:00,73.8,70.7,29.95,SSE,149,9.0,16.0,90,0.00,,---,0.40,VWS V14.01,2013-05-16 01:45:00,
2013-05-15 20:50:00,73.8,70.7,29.95,South,176,6.0,16.0,90,0.00,,---,0.40,VWS V14.01,2013-05-16 01:50:00,
2013-05-15 20:55:00,73.8,70.7,29.95,ESE,120,8.0,16.0,90,0.00,,---,0.40,VWS V14.01,2013-05-16 01:55:00,
2013-05-15 21:01:00,73.8,70.7,29.94,SE,132,5.0,16.0,90,0.00,,---,0.40,VWS V14.01,2013-05-16 02:01:00,
2013-05-15 21:06:00,73.8,71.0,29.95,ESE,122,8.0,16.0,91,0.00,,---,0.40,VWS V14.01,2013-05-16 02:06:00,
2013-05-15 21:11:00,73.8,71.0,29.94,East,85,6.0,16.0,91,0.00,,---,0.40,VWS V14.01,2013-05-16 02:11:00,
2013-05-15 21:16:00,73.8,71.0,29.94,SE,132,10.0,16.0,91,0.00,,---,0.40,VWS V14.01,2013-05-16 02:16:00,
2013-05-15 21:21:00,73.8,71.0,29.94,SSE,162,10.0,16.0,91,0.00,,---,0.40,VWS V14.01,2013-05-16 02:21:00,
2013-05-15 21:26:00,73.8,71.0,29.94,SE,141,11.0,16.0,91,0.00,,---,0.40,VWS V14.01,2013-05-16 02:26:00,
2013-05-15 21:32:00,73.8,71.0,29.94,SE,133,12.0,16.0,91,0.00,,---,0.40,VWS V14.01,2013-05-16 02:32:00,
2013-05-15 21:37:00,73.8,71.0,29.94,SSE,153,12.0,16.0,91,0.00,,---,0.40,VWS V14.01,2013-05-16 02:37:00,
2013-05-15 21:46:00,73.8,71.0,29.94,SSE,165,13.0,16.0,91,0.00,,---,0.40,VWS V14.01,2013-05-16 02:46:00,
2013-05-15 21:53:00,73.8,71.0,29.94,SSE,157,13.0,16.0,91,0.00,,---,0.40,VWS V14.01,2013-05-16 02:53:00,
2013-05-15 21:58:00,73.8,71.0,29.94,SE,142,8.0,16.0,91,0.00,,---,0.40,VWS V14.01,2013-05-16 02:58:00,
2013-05-15 22:03:00,73.8,71.0,29.94,SE,141,10.0,12.0,91,0.00,,---,0.40,VWS V14.01,2013-05-16 03:03:00,
2013-05-15 22:08:00,73.8,71.0,29.94,SE,127,11.0,18.0,91,0.00,,---,0.40,VWS V14.01,2013-05-16 03:08:00,
2013-05-15 22:13:00,73.9,71.1,29.94,SSE,160,11.0,18.0,91,0.00,,---,0.40,VWS V14.01,2013-05-16 03:13:00,
2013-05-15 22:19:00,73.8,71.0,29.94,SE,143,7.0,18.0,91,0.00,,---,0.40,VWS V14.01,2013-05-16 03:19:00,
2013-05-15 22:24:00,73.8,71.0,29.95,SE,141,12.0,18.0,91,0.00,,---,0.40,VWS V14.01,2013-05-16 03:24:00,
2013-05-15 22:29:00,73.8,71.0,29.95,South,169,10.0,18.0,91,0.00,,---,0.40,VWS V14.01,2013-05-16 03:29:00,
2013-05-15 22:34:00,73.8,71.0,29.94,SE,128,12.0,18.0,91,0.00,,---,0.40,VWS V14.01,2013-05-16 03:34:00,
2013-05-15 22:39:00,73.8,71.0,29.94,SSE,148,13.0,20.0,91,0.00,,---,0.40,VWS V14.01,2013-05-16 03:39:00,
2013-05-15 22:44:00,73.8,71.0,29.94,SE,143,12.0,20.0,91,0.00,,---,0.40,VWS V14.01,2013-05-16 03:44:00,
2013-05-15 22:49:00,73.9,71.4,29.94,SSE,167,11.0,20.0,92,0.00,,---,0.40,VWS V14.01,2013-05-16 03:49:00,
2013-05-15 22:54:00,73.8,71.3,29.95,SE,139,13.0,20.0,92,0.00,,---,0.40,VWS V14.01,2013-05-16 03:54:00,
2013-05-15 22:59:00,73.8,71.3,29.95,SSE,153,9.0,20.0,92,0.00,,---,0.40,VWS V14.01,2013-05-16 03:59:00,
2013-05-15 23:01:00,73.8,71.3,29.95,SSE,165,10.0,20.0,92,0.00,,---,0.40,VWS V14.01,2013-05-16 04:01:00,
2013-05-15 23:06:00,73.8,71.3,29.94,SSE,167,11.0,19.0,92,0.00,,---,0.40,VWS V14.01,2013-05-16 04:06:00,
2013-05-15 23:11:00,73.7,70.9,29.94,South,177,8.0,19.0,91,0.00,,---,0.40,VWS V14.01,2013-05-16 04:11:00,
2013-05-15 23:16:00,73.7,70.9,29.94,South,177,14.0,19.0,91,0.00,,---,0.40,VWS V14.01,2013-05-16 04:16:00,
2013-05-15 23:21:00,73.7,71.2,29.94,South,170,11.0,19.0,92,0.00,,---,0.40,VWS V14.01,2013-05-16 04:21:00,
2013-05-15 23:26:00,73.7,71.2,29.94,SSE,153,12.0,19.0,92,0.00,,---,0.40,VWS V14.01,2013-05-16 04:26:00,
2013-05-15 23:31:00,73.7,71.2,29.94,South,185,14.0,20.0,92,0.00,,---,0.40,VWS V14.01,2013-05-16 04:31:00,
2013-05-15 23:36:00,73.7,71.2,29.94,South,171,6.0,20.0,92,0.00,,---,0.40,VWS V14.01,2013-05-16 04:36:00,
2013-05-15 23:41:00,73.8,71.3,29.94,SSE,167,9.0,20.0,92,0.00,,---,0.40,VWS V14.01,2013-05-16 04:41:00,
2013-05-15 23:46:00,73.7,71.2,29.94,SSE,162,11.0,20.0,92,0.00,,---,0.40,VWS V14.01,2013-05-16 04:46:00,
2013-05-15 23:51:00,73.7,71.2,29.94,SSE,167,6.0,20.0,92,0.00,,---,0.40,VWS V14.01,2013-05-16 04:51:00,
2013-05-15 23:56:00,73.7,71.2,29.94,SSE,160,10.0,20.0,92,0.00,,---,0.40,VWS V14.01,2013-05-16 04:56:00,